SXS79Y EDDE-LTAI

Flight info

Callsign SXS79Y
Flight time N/A
Altitude 37000
Route NEVKO1C NEVKO Q244 TABAT M736 RUDNO DCT DEXIT DCT BARUG DCT SASAL DCT BABIT DCT NEPOS DCT NISVA N131 USALI DCT RODIP DCT BELGI UN131 KOZLU
Aircraft B38M/M-SDE1FGHILORVWXY/HB1

Departure

Time 2026-05-05 15:00
Airport Erfurt-Weimar Airport (EDDE)

Arrival

Time N/A
Airport Antalya International Airport (LTAI)
Time Latitude Longitude Altitude Speed Heading
2026-05-05 14:34 50.97580 10.96078 1042 ft 0 kts 217°
2026-05-05 14:47 50.97586 10.96086 1042 ft 2 kts 217°
2026-05-05 14:47 50.97598 10.96100 1042 ft 2 kts 217°
2026-05-05 14:48 50.97612 10.96109 1042 ft 2 kts 183°
2026-05-05 14:48 50.97627 10.96110 1042 ft 1 kts 197°
2026-05-05 14:48 50.97637 10.96123 1042 ft 2 kts 256°
2026-05-05 14:48 50.97638 10.96135 1042 ft 1 kts 277°
2026-05-05 14:49 50.97637 10.96145 1042 ft 0 kts 277°
2026-05-05 14:50 50.97637 10.96144 1042 ft 0 kts 277°
2026-05-05 14:51 50.97639 10.96116 1042 ft 3 kts 277°
2026-05-05 14:51 50.97642 10.96066 1042 ft 5 kts 276°
2026-05-05 14:51 50.97647 10.96005 1042 ft 4 kts 279°
2026-05-05 14:51 50.97658 10.95958 1042 ft 3 kts 302°
2026-05-05 14:52 50.97675 10.95938 1042 ft 3 kts 340°
2026-05-05 14:52 50.97705 10.95938 1042 ft 4 kts
2026-05-05 14:52 50.97736 10.95944 1042 ft 2 kts 358°
2026-05-05 14:52 50.97756 10.95914 1042 ft 4 kts 298°
2026-05-05 14:53 50.97764 10.95847 1042 ft 9 kts 277°
2026-05-05 14:53 50.97775 10.95710 1042 ft 15 kts 277°
2026-05-05 14:53 50.97790 10.95519 1042 ft 17 kts 277°
2026-05-05 14:53 50.97804 10.95345 1042 ft 14 kts 277°
2026-05-05 14:54 50.97815 10.95205 1042 ft 11 kts 277°
2026-05-05 14:54 50.97825 10.95096 1042 ft 8 kts 277°
2026-05-05 14:54 50.97830 10.95020 1042 ft 5 kts 278°
2026-05-05 14:54 50.97837 10.94968 1042 ft 4 kts 285°
2026-05-05 14:55 50.97848 10.94925 1042 ft 4 kts 298°
2026-05-05 14:55 50.97866 10.94879 1042 ft 7 kts 303°
2026-05-05 14:55 50.97887 10.94820 1042 ft 5 kts 292°
2026-05-05 14:55 50.97901 10.94740 1042 ft 9 kts 279°
2026-05-05 14:56 50.97908 10.94646 1042 ft 9 kts 277°
2026-05-05 14:56 50.97919 10.94518 1042 ft 13 kts 277°
2026-05-05 14:56 50.97933 10.94347 1042 ft 15 kts 276°
2026-05-05 14:56 50.97943 10.94218 1042 ft 7 kts 279°
2026-05-05 14:57 50.97956 10.94165 1042 ft 3 kts 305°
2026-05-05 14:57 50.97984 10.94125 1042 ft 8 kts 323°
2026-05-05 14:57 50.98023 10.94081 1042 ft 5 kts 325°
2026-05-05 14:57 50.98047 10.94055 1042 ft 3 kts 325°
2026-05-05 14:58 50.98064 10.94042 1042 ft 4 kts 345°
2026-05-05 14:58 50.98088 10.94045 1042 ft 2 kts 20°
2026-05-05 14:58 50.98101 10.94055 1042 ft 2 kts 31°
2026-05-05 14:58 50.98112 10.94074 1042 ft 3 kts 59°
2026-05-05 14:59 50.98116 10.94119 1042 ft 3 kts 96°
2026-05-05 14:59 50.98114 10.94146 1042 ft 1 kts 97°
2026-05-05 14:59 50.98111 10.94184 1042 ft 15 kts 97°
2026-05-05 14:59 50.98067 10.94734 1042 ft 81 kts 97°
2026-05-05 15:00 50.97972 10.95909 1042 ft 132 kts 95°
2026-05-05 15:00 50.97887 10.96982 1042 ft 160 kts 96°
2026-05-05 15:00 50.97652 10.99337 1618 ft 164 kts 96°
2026-05-05 15:00 50.97466 11.01236 1971 ft 180 kts 97°
2026-05-05 15:01 50.97204 11.03165 2503 ft 185 kts 99°
2026-05-05 15:01 50.96933 11.05279 2905 ft 205 kts 99°
2026-05-05 15:01 50.96684 11.07575 3449 ft 219 kts 97°
2026-05-05 15:01 50.96441 11.10039 3966 ft 235 kts 97°
2026-05-05 15:02 50.96179 11.12645 4599 ft 245 kts 97°
2026-05-05 15:02 50.95908 11.15333 5319 ft 253 kts 98°
2026-05-05 15:02 50.95623 11.18205 5856 ft 270 kts 97°
2026-05-05 15:02 50.95314 11.21176 6550 ft 279 kts 105°
2026-05-05 15:03 50.94446 11.23880 7312 ft 283 kts 134°
2026-05-05 15:03 50.92867 11.25653 8129 ft 283 kts 155°
2026-05-05 15:03 50.91057 11.26905 8931 ft 286 kts 158°
2026-05-05 15:03 50.89248 11.28138 9750 ft 287 kts 158°
2026-05-05 15:04 50.87390 11.29468 10329 ft 298 kts 157°
2026-05-05 15:04 50.85478 11.30883 10759 ft 313 kts 156°
2026-05-05 15:04 50.83477 11.32387 11188 ft 327 kts 156°
2026-05-05 15:04 50.81374 11.33974 11565 ft 342 kts 156°
2026-05-05 15:05 50.76901 11.37343 12222 ft 372 kts 156°
2026-05-05 15:05 50.74551 11.39109 12797 ft 378 kts 156°
2026-05-05 15:05 50.72171 11.40898 13504 ft 380 kts 156°
2026-05-05 15:06 50.69807 11.42674 14182 ft 382 kts 156°
2026-05-05 15:06 50.67402 11.44478 14827 ft 386 kts 156°
2026-05-05 15:06 50.64972 11.46293 15476 ft 388 kts 156°
2026-05-05 15:06 50.62538 11.48110 16149 ft 390 kts 156°
2026-05-05 15:07 50.60093 11.49934 16757 ft 393 kts 156°
2026-05-05 15:07 50.57590 11.51801 17356 ft 396 kts 156°
2026-05-05 15:07 50.55126 11.53627 17995 ft 397 kts 156°
2026-05-05 15:07 50.52567 11.55417 18509 ft 401 kts 158°
2026-05-05 15:08 50.50009 11.57116 19137 ft 402 kts 159°
2026-05-05 15:08 50.47422 11.58805 19670 ft 405 kts 158°
2026-05-05 15:08 50.44808 11.60502 20162 ft 409 kts 159°
2026-05-05 15:08 50.42213 11.62188 20755 ft 410 kts 159°
2026-05-05 15:09 50.39555 11.63916 21198 ft 415 kts 158°
2026-05-05 15:09 50.36907 11.65644 21705 ft 417 kts 159°
2026-05-05 15:09 50.34217 11.67403 22207 ft 419 kts 159°
2026-05-05 15:09 50.31534 11.69159 22713 ft 421 kts 159°
2026-05-05 15:10 50.28830 11.70932 23184 ft 424 kts 159°
2026-05-05 15:10 50.26075 11.72737 23656 ft 426 kts 159°
2026-05-05 15:10 50.23337 11.74531 24060 ft 431 kts 159°
2026-05-05 15:10 50.20602 11.76323 24560 ft 432 kts 159°
2026-05-05 15:11 50.17813 11.78147 25055 ft 433 kts 159°
2026-05-05 15:11 50.15041 11.79955 25502 ft 436 kts 159°
2026-05-05 15:11 50.12231 11.81785 25701 ft 443 kts 159°
2026-05-05 15:11 50.09365 11.83649 26258 ft 443 kts 159°
2026-05-05 15:12 50.06555 11.85476 26688 ft 445 kts 159°
2026-05-05 15:12 50.03682 11.87341 26913 ft 451 kts 159°
2026-05-05 15:12 50.00774 11.89219 27201 ft 456 kts 158°
2026-05-05 15:12 49.97834 11.91117 27612 ft 457 kts 159°
2026-05-05 15:13 49.94886 11.92989 28019 ft 458 kts 159°
2026-05-05 15:13 49.91977 11.94857 28471 ft 458 kts 159°
2026-05-05 15:13 49.89038 11.96757 28980 ft 457 kts 158°
2026-05-05 15:13 49.86085 11.98676 29522 ft 455 kts 159°
2026-05-05 15:14 49.83183 12.00556 30020 ft 453 kts 159°
2026-05-05 15:14 49.80279 12.02413 30528 ft 452 kts 159°
2026-05-05 15:14 49.77397 12.04266 30936 ft 452 kts 159°
2026-05-05 15:14 49.74461 12.06194 31249 ft 455 kts 157°
2026-05-05 15:15 49.71617 12.08433 31565 ft 458 kts 152°
2026-05-05 15:15 49.68912 12.11068 31930 ft 460 kts 148°
2026-05-05 15:15 49.66296 12.13964 32353 ft 460 kts 145°
2026-05-05 15:15 49.63766 12.16962 32861 ft 458 kts 144°
2026-05-05 15:16 49.61306 12.19986 33434 ft 454 kts 143°
2026-05-05 15:16 49.58847 12.23045 33831 ft 453 kts 143°
2026-05-05 15:16 49.56408 12.26097 34373 ft 448 kts 143°
2026-05-05 15:16 49.54015 12.29091 34913 ft 443 kts 144°
2026-05-05 15:17 49.51653 12.32031 35341 ft 439 kts 144°
2026-05-05 15:17 49.49281 12.34964 35569 ft 440 kts 144°
2026-05-05 15:17 49.46889 12.37904 35702 ft 443 kts 144°
2026-05-05 15:17 49.44485 12.40845 35932 ft 444 kts 144°
2026-05-05 15:18 49.42085 12.43772 36198 ft 443 kts 144°
2026-05-05 15:18 49.39681 12.46700 36479 ft 442 kts 144°
2026-05-05 15:18 49.37268 12.49650 36712 ft 442 kts 143°
2026-05-05 15:19 49.32751 12.56169 36751 ft 454 kts 134°
2026-05-05 15:19 49.28754 12.63764 36751 ft 464 kts 129°
2026-05-05 15:20 49.24935 12.71726 36747 ft 463 kts 129°
2026-05-05 15:20 49.21169 12.79659 36745 ft 464 kts 129°
2026-05-05 15:21 49.17342 12.87646 36753 ft 465 kts 129°
2026-05-05 15:21 49.13528 12.95524 36755 ft 465 kts 129°
2026-05-05 15:22 49.09672 13.03437 36760 ft 467 kts 130°
2026-05-05 15:22 49.05782 13.11387 36760 ft 468 kts 130°
2026-05-05 15:23 49.01884 13.19320 36766 ft 469 kts 130°
2026-05-05 15:23 48.97994 13.27215 36766 ft 469 kts 130°
2026-05-05 15:24 48.94085 13.35122 36775 ft 470 kts 130°
2026-05-05 15:24 48.90135 13.43096 36784 ft 471 kts 129°
2026-05-05 15:25 48.86228 13.50959 36772 ft 471 kts 129°
2026-05-05 15:25 48.82288 13.58872 36772 ft 471 kts 129°
2026-05-05 15:26 48.78336 13.66780 36764 ft 470 kts 130°
2026-05-05 15:26 48.74372 13.74667 36765 ft 471 kts 130°
2026-05-05 15:27 48.70373 13.82497 36757 ft 471 kts 130°
2026-05-05 15:27 48.66372 13.90267 36760 ft 471 kts 130°
2026-05-05 15:28 48.62339 13.98082 36758 ft 471 kts 130°
2026-05-05 15:28 48.58316 14.05868 36753 ft 472 kts 130°
2026-05-05 15:29 48.54279 14.13672 36756 ft 472 kts 130°
2026-05-05 15:29 48.50240 14.21455 36753 ft 473 kts 130°
2026-05-05 15:30 48.46196 14.29231 36751 ft 474 kts 130°
2026-05-05 15:30 48.42142 14.36996 36750 ft 474 kts 130°
2026-05-05 15:31 48.38037 14.44828 36745 ft 474 kts 130°
2026-05-05 15:31 48.33970 14.52571 36738 ft 474 kts 130°
2026-05-05 15:32 48.29905 14.60292 36733 ft 474 kts 130°
2026-05-05 15:32 48.25874 14.67928 36727 ft 473 kts 131°
2026-05-05 15:33 48.21832 14.75560 36720 ft 475 kts 130°
2026-05-05 15:33 48.17749 14.83248 36725 ft 475 kts 130°
2026-05-05 15:34 48.13613 14.91011 36731 ft 475 kts 130°
2026-05-05 15:34 48.09508 14.98697 36736 ft 475 kts 131°
2026-05-05 15:35 48.05389 15.06389 36741 ft 475 kts 131°
2026-05-05 15:35 48.01277 15.14042 36752 ft 475 kts 130°
2026-05-05 15:36 47.97145 15.21714 36770 ft 474 kts 130°
2026-05-05 15:36 47.93015 15.29361 36788 ft 474 kts 130°
2026-05-05 15:37 47.88892 15.36978 36805 ft 474 kts 130°
2026-05-05 15:37 47.84763 15.44641 36808 ft 473 kts 130°
2026-05-05 15:38 47.80668 15.52256 36800 ft 473 kts 130°
2026-05-05 15:38 47.76580 15.59841 36795 ft 474 kts 130°
2026-05-05 15:39 47.72464 15.67451 36788 ft 473 kts 131°
2026-05-05 15:39 47.68322 15.75085 36809 ft 473 kts 131°
2026-05-05 15:40 47.64204 15.82650 36825 ft 473 kts 131°
2026-05-05 15:40 47.60101 15.90165 36831 ft 472 kts 131°
2026-05-05 15:41 47.55948 15.97748 36848 ft 472 kts 131°
2026-05-05 15:41 47.51817 16.05271 36844 ft 472 kts 131°
2026-05-05 15:42 47.47689 16.12769 36839 ft 472 kts 131°
2026-05-05 15:42 47.43536 16.20291 36839 ft 473 kts 131°
2026-05-05 15:43 47.39393 16.27776 36826 ft 472 kts 130°
2026-05-05 15:43 47.35251 16.35240 36835 ft 473 kts 131°
2026-05-05 15:44 47.31081 16.42732 36833 ft 473 kts 131°
2026-05-05 15:44 47.26912 16.50241 36847 ft 474 kts 130°
2026-05-05 15:45 47.22857 16.57852 36851 ft 474 kts 129°
2026-05-05 15:45 47.18862 16.65470 36847 ft 474 kts 129°
2026-05-05 15:46 47.14835 16.73118 36853 ft 474 kts 129°
2026-05-05 15:46 47.10796 16.80729 36861 ft 473 kts 129°